Temperature
18 18 18 17 17 17 17 17 17 16 16 16 16 16 16 16 16 16 16 16 16 16 16 16 16 16 16 16 16 16 15 15 15 15 15 14 14 14 14 14 14 14 14
18 18 18 17 17 17 17 17 17 16 16 16 16 16 16 16 16 16 16 16 16 16 16 16 15 15 15 15 15 15 15 15 14 14 14 14 14 14 14 14 14 13 13
18 18 17 17 17 17 17 17 17 16 16 16 16 16 16 16 16 16 16 16 15 15 15 15 15 15 15 15 15 15 15 14 14 14 14 14 14 13 13 13 13 13 13
18 18 17 17 17 17 17 17 16 16 16 16 16 16 16 16 16 16 16 16 15 15 15 15 15 15 15 15 15 15 14 14 14 14 14 14 13 13 13 13 13 13 13
17 17 17 17 17 16 16 16 16 16 16 16 16 16 16 15 15 15 15 15 15 15 15 15 15 15 15 15 15 14 14 14 13 13 14 13 13 13 13 13 13 13 13
16 17 17 17 16 16 16 16 16 16 16 16 16 16 16 16 15 15 15 15 15 15 15 15 15 15 15 15 14 14 14 13 13 13 13 13 13 12 12 13 13 12 12
16 16 16 16 16 16 16 16 16 16 16 16 16 16 16 15 15 15 15 15 15 15 15 15 15 14 14 14 14 14 13 13 13 13 13 13 13 12 12 12 12 12 12
16 16 16 16 16 16 16 16 16 16 16 16 16 16 15 15 15 15 15 15 15 15 15 14 14 14 14 14 14 14 13 13 13 13 13 13 12 12 12 12 11 11 11
15 15 15 15 15 15 15 15 16 16 16 16 15 15 15 15 15 15 14 14 14 14 14 14 14 14 14 14 14 13 13 13 13 13 13 13 12 11 11 11 11 11 11
15 15 15 15 15 15 15 15 15 15 15 15 15 15 15 15 14 14 14 14 14 14 14 14 14 14 14 14 13 13 13 13 13 13 13 12 12 11 11 11 11 11 11
14 14 14 14 14 15 15 15 15 15 15 15 15 15 14 14 14 14 14 14 14 14 14 14 14 14 13 13 13 13 13 13 13 13 13 12 11 11 11 11 11 11 10
14 14 14 14 14 14 14 15 15 15 15 15 14 14 14 14 14 14 14 14 14 14 14 13 13 13 13 13 13 13 12 12 12 13 12 12 12 11 11 11 11 10 10
14 14 14 14 14 14 14 14 14 14 14 14 14 14 14 14 14 14 13 13 13 13 13 13 13 13 13 13 13 12 12 12 12 12 12 12 11 11 11 10 10 10 10
14 14 14 14 14 14 14 14 14 14 14 14 14 14 14 14 14 13 13 13 13 13 13 13 13 13 13 13 12 12 12 12 12 12 12 11 11 11 11 10 10 9 9
14 14 13 13 13 14 14 14 14 14 14 14 14 13 13 13 13 13 13 13 13 13 13 13 13 12 12 12 12 12 12 12 12 12 11 11 11 11 10 10 9 9 9
14 13 13 13 13 13 13 13 13 13 13 13 13 13 13 13 13 13 13 13 13 13 13 12 12 12 12 12 12 12 11 11 11 11 11 11 11 10 10 10 9 9 9
14 13 13 13 13 13 13 13 13 13 13 13 13 13 13 13 13 13 13 12 12 12 12 12 12 12 12 12 12 11 11 11 11 11 11 10 10 10 10 9 9 9 8
13 13 13 13 13 13 13 13 13 13 13 13 13 13 13 13 13 13 12 12 12 12 12 12 12 11 11 11 11 11 11 11 11 10 10 10 10 10 9 9 9 8 8
13 13 13 13 12 13 13 13 12 12 12 12 12 12 12 12 12 12 12 12 12 12 12 12 11 11 11 11 11 11 11 11 10 10 10 10 9 9 9 9 8 8 8
13 13 13 12 12 12 12 12 12 12 12 12 12 12 12 12 12 12 12 12 12 12 12 11 11 11 11 11 11 11 10 10 10 10 9 9 9 9 8 8 8 8 8
12 12 12 12 12 12 12 12 12 12 12 12 12 12 12 12 12 12 12 12 12 12 11 11 11 11 11 11 10 10 10 10 9 9 9 9 8 8 8 8 8 7 7
11 12 12 12 11 12 12 12 12 12 11 11 11 11 11 11 12 12 12 12 11 11 11 11 11 11 10 10 10 9 9 9 9 9 8 8 8 8 7 7 7 7 7
11 11 11 11 11 11 11 11 11 11 11 11 11 11 11 11 11 11 11 11 11 11 11 11 11 10 10 10 9 9 8 8 8 8 8 8 7 7 7 7 7 7 6
11 11 11 11 11 11 11 11 11 11 11 11 11 11 11 11 11 11 11 11 11 11 11 10 10 10 10 9 9 8 8 7 7 7 7 7 7 7 7 7 6 6 6
10 10 10 10 10 10 10 10 10 10 10 10 10 10 10 10 10 10 10 10 10 10 10 10 10 9 9 9 8 8 8 7 7 6 6 7 7 7 6 6 6 6 5
10 10 10 10 10 10 10 10 10 10 10 10 10 10 10 10 10 10 10 10 10 10 10 10 9 9 9 8 8 7 7 7 6 6 5 6 6 6 6 6 6 5 5
Wind_Speed
9 12 15 14 14 14 15 15 15 15 15 15 15 15 15 15 15 16 16 16 16 17 17 17 17 17 17 17 17 16 16 16 16 16 17 17 17 17 17 16 15 14 16
13 15 16 15 15 14 15 15 15 15 15 15 15 15 15 15 15 15 16 16 16 16 16 16 16 16 16 16 16 15 15 15 15 15 15 16 16 16 16 16 15 13 15
15 16 17 16 15 15 15 15 15 15 14 14 14 14 14 14 14 15 15 15 16 16 16 15 15 15 15 15 14 14 13 13 12 13 14 13 14 16 15 15 15 15 14
15 16 16 16 16 15 15 15 16 15 15 14 14 14 14 14 14 14 15 15 15 15 15 15 14 14 15 14 13 12 12 12 12 13 13 13 13 15 15 15 15 14 14
13 15 16 17 16 16 15 14 15 16 15 14 14 14 13 14 14 14 15 15 14 15 14 14 14 14 14 13 12 11 11 11 13 13 13 14 13 14 15 15 14 14 14
12 15 17 17 17 16 15 14 15 15 15 14 14 14 14 14 14 14 14 14 14 14 14 14 14 13 13 12 11 11 11 11 13 12 13 14 12 14 14 14 13 13 14
12 14 16 17 17 16 16 14 14 15 15 15 15 14 14 14 14 14 13 13 13 13 13 13 13 12 12 11 10 10 10 11 12 13 13 13 13 13 13 13 13 13 13
12 14 16 16 17 16 16 15 14 15 15 15 14 14 14 14 13 13 13 13 13 12 12 12 12 12 11 10 9 9 9 10 11 12 13 12 13 13 13 13 12 13 13
12 12 13 14 15 16 16 16 14 15 15 14 14 14 14 14 13 13 12 12 12 11 11 11 11 11 10 9 8 7 9 10 11 10 10 11 11 12 12 12 12 12 12
10 11 11 12 13 13 14 15 14 15 15 14 14 14 14 13 13 13 12 11 11 11 11 11 10 9 8 7 6 5 7 9 11 11 10 10 11 11 11 11 11 11 11
9 9 10 10 12 13 13 14 15 15 15 15 13 14 12 12 11 11 11 11 11 10 10 10 9 8 6 5 3 5 6 8 10 10 9 10 10 10 10 11 11 11 11
9 8 9 9 10 11 11 12 12 12 12 12 11 10 10 10 10 10 11 11 11 10 9 7 6 6 5 3 3 4 6 8 9 9 9 9 9 9 9 10 10 10 11
9 8 8 8 9 9 8 9 8 9 10 10 10 9 10 10 10 9 8 8 8 7 5 4 4 4 5 4 4 5 6 8 9 8 8 8 8 8 9 9 10 10 10
9 8 8 8 8 8 8 7 7 7 7 7 8 9 9 7 6 6 6 6 5 5 4 3 3 4 4 4 5 5 6 7 8 8 7 7 7 7 8 9 9 10 10
9 8 8 8 8 7 6 5 6 6 6 8 8 9 9 6 4 5 5 5 5 5 3 3 3 4 4 3 4 5 5 6 7 7 6 6 6 6 7 8 9 9 10
8 8 8 8 8 7 5 4 6 7 7 8 8 9 9 8 6 5 5 4 5 5 4 4 4 3 3 3 3 4 4 5 6 6 6 5 5 5 6 7 8 9 10
9 9 8 7 7 7 6 5 6 7 7 7 7 9 9 9 7 7 5 4 4 5 5 5 4 3 2 2 2 3 3 3 3 4 4 4 4 5 5 6 8 9 10
8 9 9 7 7 7 6 5 5 7 7 7 7 8 9 9 8 7 5 4 5 5 4 3 2 2 2 1 1 2 2 2 2 3 3 3 3 3 4 5 7 8 10
8 8 8 8 7 6 6 5 6 7 6 6 7 7 7 8 8 7 5 5 6 4 3 2 2 2 2 1 1 0 0 0 0 1 2 2 2 2 3 4 6 8 9
6 8 8 7 6 6 5 5 5 5 5 6 6 7 7 7 8 7 6 5 5 3 2 2 2 2 1 1 1 1 1 1 1 1 0 0 1 2 3 3 4 6 8
6 7 8 7 7 6 5 5 5 4 4 4 5 7 7 7 7 6 5 4 4 3 2 3 2 2 1 1 1 1 2 2 1 1 1 0 1 2 3 4 4 5 6
5 7 7 7 7 6 5 4 3 4 4 3 4 6 6 6 6 6 5 4 3 3 3 2 2 1 1 1 1 0 2 2 2 2 1 1 1 1 2 4 4 5 5
4 4 5 6 6 6 7 5 5 4 3 3 3 3 4 6 6 5 5 4 4 3 3 2 2 2 1 0 1 2 1 2 2 2 2 1 1 2 2 3 4 5 6
4 4 4 4 5 6 7 7 8 6 4 4 4 3 4 5 6 6 5 4 4 3 3 2 2 1 2 1 0 0 1 1 0 3 3 2 2 3 3 3 4 5 5
4 4 4 4 4 5 6 7 7 5 4 4 4 5 4 4 5 5 5 4 4 3 3 3 2 1 1 1 1 0 1 1 1 1 3 4 3 3 3 4 3 3 5
4 4 4 4 4 4 5 5 6 7 6 6 5 5 4 3 4 5 5 4 4 3 3 3 3 2 2 1 0 0 0 0 1 1 3 4 5 4 4 3 2 3 5
Wind_Direction
126 135 138 132 129 128 129 127 122 118 115 111 109 106 103 100 98 96 95 94 93 91 88 85 83 81 79 78 77 76 75 74 73 72 69 67 65 62 59 57 55 52 53
131 137 138 134 131 128 130 127 123 120 117 115 112 110 107 105 101 99 96 95 94 91 89 86 83 82 81 79 77 77 76 75 74 72 70 67 64 61 58 56 54 53 51
130 135 138 134 132 129 128 129 125 122 119 118 116 113 110 108 105 102 99 96 94 92 89 87 85 84 83 80 78 77 75 71 67 69 67 63 61 60 57 54 53 51 49
131 135 137 134 133 131 129 129 127 124 121 118 117 116 114 111 109 105 102 99 95 92 90 88 86 85 84 81 79 75 69 60 59 64 62 60 58 58 54 51 51 48 45
127 132 133 134 134 133 131 129 129 126 122 120 118 116 115 113 110 107 103 100 97 95 92 90 87 85 83 80 77 71 63 57 60 66 65 61 57 56 53 50 48 44 42
125 126 133 134 134 134 132 128 128 127 125 123 120 117 115 113 110 107 104 102 100 97 95 92 89 86 83 79 75 68 61 57 63 64 63 58 56 55 53 50 46 44 42
127 127 133 133 133 133 130 129 128 127 125 124 122 119 116 113 111 109 107 105 103 100 98 95 92 88 84 79 72 65 58 60 68 68 63 56 56 55 52 49 46 42 40
127 128 133 132 131 130 129 126 124 127 126 125 123 122 119 115 112 111 109 107 105 103 100 97 94 89 84 78 70 56 47 56 68 69 64 58 59 56 52 47 43 40 37
126 128 132 132 129 128 127 126 123 123 123 124 124 122 119 116 114 112 110 110 109 106 103 100 96 91 87 80 71 55 49 55 63 64 62 58 59 55 51 45 41 37 34
129 134 139 139 134 129 126 125 124 124 121 119 120 120 119 117 114 110 107 109 109 108 106 103 99 96 91 83 68 46 42 60 71 64 57 58 57 52 48 43 37 33 31
134 140 142 141 137 134 133 130 127 125 123 121 122 125 121 115 113 110 109 109 106 109 110 107 106 103 100 90 62 41 50 77 79 69 57 59 55 50 45 39 34 30 27
146 147 146 144 139 137 138 136 135 133 133 130 134 130 121 118 117 115 114 113 109 107 111 117 119 116 103 83 52 46 60 75 80 73 59 60 53 46 40 35 31 28 23
152 147 144 140 139 135 133 140 140 140 141 136 137 131 120 113 114 114 113 110 113 112 109 123 127 100 90 75 55 55 61 73 82 77 62 61 51 43 36 32 28 24 20
150 147 145 140 135 133 134 140 140 134 133 132 136 130 123 120 119 125 123 124 123 107 102 93 84 79 83 75 68 65 64 77 90 88 68 63 50 41 32 27 23 20 17
153 150 147 143 137 129 126 136 130 126 128 130 131 128 123 119 117 122 118 119 108 105 103 94 83 71 66 60 66 67 66 80 93 95 83 68 51 37 28 21 16 15 11
154 149 144 142 139 133 131 128 128 127 129 126 125 127 126 124 119 111 103 102 100 102 92 83 81 79 67 54 60 64 64 73 92 101 93 75 57 36 24 16 9 6 3
155 148 142 143 139 138 133 128 125 128 126 119 122 125 121 121 121 116 108 96 97 98 90 80 65 69 69 51 51 59 56 55 76 95 93 84 65 40 20 8 2 358 356
149 148 144 145 141 140 133 124 124 122 119 119 121 119 119 120 121 116 111 105 104 99 91 84 77 64 60 50 42 32 52 57 60 83 79 74 60 42 12 355 353 351 349
149 147 144 144 146 136 129 123 120 113 114 118 119 117 119 121 122 115 111 113 113 99 85 86 73 76 60 32 14 2 8 96 133 94 86 64 40 33 9 346 342 341 342
148 144 143 143 138 132 124 122 113 111 113 111 114 119 123 124 123 118 114 113 112 104 94 90 81 67 69 358 324 302 247 224 183 126 135 66 359 2 349 336 334 329 332
142 144 147 147 145 138 138 136 139 140 129 119 115 121 126 125 123 120 118 113 111 121 120 110 97 90 53 28 28 325 292 253 189 165 199 253 341 345 341 336 331 325 324
155 154 151 154 158 154 154 149 141 137 129 123 118 116 128 128 129 129 120 128 123 126 116 103 99 98 73 65 76 17 330 318 301 247 231 242 271 314 318 324 324 322 323
153 159 163 167 160 155 144 131 120 112 114 127 133 138 133 135 133 130 129 127 128 132 138 134 121 110 151 166 74 99 105 277 301 287 264 260 314 317 311 313 314 323 321
164 157 154 159 156 153 147 152 154 156 162 168 160 155 137 134 134 137 133 130 127 132 142 153 140 118 134 171 313 29 164 155 335 302 300 300 309 302 299 307 305 307 313
150 144 155 151 156 156 158 163 162 159 154 143 143 148 150 144 141 141 145 138 143 145 149 154 143 124 142 151 158 290 295 316 260 255 292 305 308 287 287 287 284 298 306
127 132 144 151 160 154 158 165 163 158 153 149 159 163 159 158 155 152 151 148 150 156 158 155 154 153 157 149 130 108 135 203 283 271 284 302 301 290 287 280 280 299 312
Height
1507 1509 1511 1514 1516 1518 1520 1522 1524 1526 1527 1528 1529 1530 1531 1532 1533 1534 1534 1535 1535 1536 1536 1537 1537 1538 1538 1538 1538 1538 1538 1538 1538 1538 1538 1538 1538 1537 1537 1536 1535 1535 1535
1505 1508 1511 1514 1516 1519 1521 1523 1525 1526 1528 1529 1531 1532 1533 1534 1534 1535 1536 1537 1537 1538 1538 1539 1539 1539 1539 1540 1540 1540 1540 1540 1540 1540 1539 1539 1539 1538 1538 1537 1536 1536 1535
1505 1508 1511 1514 1516 1519 1521 1523 1525 1527 1529 1530 1532 1533 1534 1535 1536 1537 1537 1538 1539 1539 1540 1540 1540 1540 1541 1541 1541 1541 1541 1541 1541 1541 1541 1540 1540 1539 1539 1538 1537 1537 1536
1505 1508 1511 1514 1517 1519 1522 1524 1526 1528 1530 1531 1533 1534 1535 1536 1537 1538 1538 1539 1540 1540 1541 1541 1541 1542 1542 1542 1542 1542 1542 1543 1542 1542 1541 1541 1541 1540 1540 1539 1538 1537 1536
1506 1508 1511 1514 1517 1520 1522 1524 1526 1528 1530 1532 1533 1535 1536 1537 1538 1539 1539 1540 1541 1541 1542 1542 1543 1543 1543 1543 1543 1544 1544 1543 1543 1543 1542 1542 1541 1541 1540 1539 1538 1537 1537
1506 1509 1512 1514 1517 1520 1522 1524 1527 1529 1531 1532 1534 1535 1537 1538 1538 1539 1540 1541 1542 1542 1543 1543 1543 1544 1544 1544 1544 1545 1544 1544 1544 1543 1543 1542 1542 1541 1541 1539 1538 1538 1537
1506 1509 1512 1515 1517 1520 1522 1524 1526 1529 1531 1533 1534 1536 1537 1538 1539 1540 1541 1542 1542 1543 1543 1544 1544 1544 1545 1545 1545 1545 1545 1545 1544 1544 1543 1543 1542 1542 1541 1540 1539 1538 1537
1506 1509 1512 1515 1518 1520 1522 1525 1527 1529 1531 1533 1535 1536 1538 1539 1540 1541 1541 1542 1543 1543 1544 1545 1545 1545 1545 1546 1546 1546 1546 1546 1545 1544 1544 1543 1543 1542 1541 1540 1539 1538 1537
1507 1509 1512 1515 1518 1520 1522 1525 1527 1529 1531 1533 1535 1536 1538 1539 1540 1541 1542 1543 1543 1544 1544 1545 1546 1546 1546 1546 1546 1547 1546 1546 1545 1545 1544 1543 1543 1542 1541 1540 1539 1538 1537
1507 1509 1511 1514 1517 1519 1522 1525 1527 1529 1531 1533 1535 1537 1538 1539 1540 1541 1542 1543 1544 1544 1545 1546 1546 1546 1547 1547 1547 1547 1547 1546 1545 1545 1544 1544 1543 1542 1541 1540 1539 1537 1536
1507 1509 1511 1514 1516 1519 1522 1524 1527 1529 1531 1533 1535 1536 1538 1539 1540 1541 1542 1543 1544 1545 1545 1546 1546 1547 1547 1547 1547 1547 1547 1546 1545 1545 1545 1544 1543 1542 1541 1540 1538 1537 1536
1505 1508 1511 1513 1515 1518 1521 1523 1526 1528 1530 1532 1534 1536 1537 1539 1540 1541 1542 1542 1543 1545 1545 1546 1546 1547 1547 1547 1547 1547 1547 1546 1545 1545 1544 1544 1543 1542 1541 1539 1538 1536 1535
1504 1507 1509 1512 1515 1517 1520 1522 1525 1527 1530 1532 1534 1535 1537 1538 1540 1541 1542 1542 1543 1544 1545 1546 1546 1546 1547 1547 1547 1547 1547 1546 1545 1545 1544 1544 1543 1542 1540 1539 1537 1536 1534
1503 1505 1508 1511 1514 1517 1519 1522 1524 1526 1529 1531 1533 1535 1536 1538 1539 1540 1541 1542 1543 1544 1545 1545 1546 1546 1546 1547 1547 1547 1546 1546 1545 1544 1544 1543 1542 1541 1540 1538 1537 1535 1533
1501 1504 1507 1510 1513 1515 1518 1521 1523 1526 1528 1531 1533 1534 1536 1537 1538 1540 1541 1542 1543 1544 1544 1544 1545 1545 1546 1546 1546 1546 1546 1545 1544 1544 1543 1542 1541 1540 1539 1537 1536 1534 1532
1500 1503 1506 1509 1511 1514 1516 1519 1522 1525 1527 1530 1532 1533 1535 1537 1538 1539 1540 1541 1542 1543 1543 1544 1544 1544 1545 1545 1545 1545 1545 1545 1544 1543 1542 1541 1540 1539 1538 1536 1535 1533 1531
1498 1501 1504 1507 1510 1513 1515 1518 1521 1523 1526 1528 1531 1533 1534 1536 1537 1538 1540 1540 1541 1542 1543 1543 1544 1544 1544 1544 1544 1544 1544 1544 1543 1542 1541 1540 1539 1538 1536 1535 1533 1531 1529
1496 1500 1503 1505 1508 1511 1514 1516 1519 1522 1524 1527 1529 1531 1533 1535 1536 1537 1539 1540 1540 1541 1542 1542 1543 1542 1543 1543 1543 1543 1543 1542 1542 1541 1540 1539 1538 1536 1535 1533 1531 1530 1528
1494 1497 1500 1504 1506 1508 1511 1514 1517 1520 1523 1525 1527 1529 1531 1533 1535 1536 1537 1538 1539 1540 1541 1541 1542 1542 1542 1542 1542 1541 1541 1541 1540 1539 1539 1537 1536 1534 1533 1531 1530 1528 1526
1492 1495 1498 1501 1504 1506 1509 1512 1515 1518 1521 1523 1526 1528 1530 1532 1533 1534 1536 1537 1538 1539 1539 1540 1540 1540 1540 1540 1540 1540 1539 1539 1538 1537 1537 1535 1534 1533 1531 1529 1527 1526 1524
1490 1492 1496 1499 1501 1503 1506 1509 1512 1515 1518 1521 1524 1526 1528 1530 1531 1533 1534 1535 1536 1537 1538 1538 1538 1539 1539 1538 1538 1537 1537 1537 1536 1535 1535 1533 1532 1531 1529 1527 1525 1523 1521
1488 1489 1493 1496 1499 1501 1504 1507 1510 1513 1516 1519 1522 1524 1526 1528 1529 1531 1532 1533 1534 1535 1536 1536 1536 1537 1537 1537 1536 1536 1535 1535 1534 1533 1532 1531 1530 1528 1527 1525 1523 1521 1519
1485 1487 1491 1494 1496 1499 1501 1505 1508 1511 1514 1517 1519 1522 1524 1525 1527 1529 1530 1531 1532 1533 1534 1534 1534 1534 1535 1535 1535 1535 1534 1533 1531 1531 1530 1529 1528 1526 1524 1522 1520 1518 1516
1484 1486 1489 1491 1494 1496 1499 1502 1505 1507 1510 1513 1516 1519 1521 1523 1525 1526 1528 1529 1530 1531 1531 1532 1532 1532 1533 1533 1533 1533 1533 1532 1531 1528 1528 1527 1525 1524 1522 1520 1518 1515 1513
1482 1484 1486 1489 1491 1494 1497 1500 1502 1505 1508 1511 1514 1516 1518 1520 1522 1524 1525 1526 1527 1528 1529 1529 1530 1530 1530 1531 1530 1530 1530 1530 1529 1528 1524 1523 1522 1521 1519 1517 1515 1513 1511
1480 1482 1484 1486 1489 1492 1494 1497 1500 1502 1505 1508 1511 1513 1515 1517 1519 1521 1522 1524 1524 1525 1526 1527 1527 1528 1528 1528 1528 1528 1528 1528 1527 1525 1523 1520 1519 1517 1516 1514 1512 1510 1508